DW3361 Weather Reports


time (UTC)temp
C
wind
direction
speed
KPH
gust
KPH
rain 1hr
cm
rain 24hr
cm
rain mn
cm
humidity
%
barometer
mb
20260507194516 11 234 0.0 0.0 0.03 0.30 0.30 74 1014.4
20260507193023 11 234 0.0 0.0 0.15 0.30 0.30 72 1014.1
20260507191521 11 232 0.0 0.0 0.30 0.30 0.30 71 1013.8
20260507190008 11 232 0.0 1.6 0.30 0.30 0.30 70 1013.6
20260507184504 12 232 0.0 0.0 0.25 0.25 0.25 68 1013.3
20260507183114 12 232 0.0 11.3 0.15 0.15 0.15 66 1013.0
20260507181557 13 155 4.8 19.3 0.03 0.03 0.03 60 1012.2
20260507180056 13 112 6.4 30.6 0.00 0.00 0.00 53 1011.9
20260507174554 15 79 11.3 33.8 0.00 0.00 0.00 50 1011.0
20260507173116 17 139 11.3 33.8 0.00 0.00 0.00 46 1010.1
20260507171549 20 204 4.8 14.5 0.00 0.00 0.00 37 1009.5
20260507170050 21 11 3.2 14.5 0.00 0.00 0.00 35 1008.5
20260507164554 21 30 0.0 9.7 0.00 0.00 0.00 34 1008.2
20260507163046 21 355 0.0 9.7 0.00 0.00 0.00 33 1008.1
20260507161555 22 18 0.0 9.7 0.00 0.00 0.00 32 1007.9
20260507160101 22 304 6.4 19.3 0.00 0.00 0.00 36 1008.0
20260507154545 22 281 9.7 24.1 0.00 0.00 0.00 36 1007.8
20260507153044 22 263 9.7 20.9 0.00 0.00 0.00 37 1007.8
20260507151543 22 276 12.9 29.0 0.00 0.00 0.00 38 1007.7
20260507150043 22 224 4.8 24.1 0.00 0.00 0.00 40 1007.7
20260507144550 21 286 16.1 27.4 0.00 0.00 0.00 39 1007.7
20260507143041 22 267 6.4 22.5 0.00 0.00 0.00 37 1007.8
20260507141540 21 288 11.3 17.7 0.00 0.00 0.00 39 1007.9
20260507140040 22 298 17.7 22.5 0.00 0.00 0.00 38 1008.0
20260507134537 21 298 12.9 22.5 0.00 0.00 0.00 40 1008.1
20260507133040 22 272 14.5 22.5 0.00 0.00 0.00 38 1008.2
20260507131537 22 288 16.1 27.4 0.00 0.00 0.00 36 1008.3
20260507130040 22 267 12.9 20.9 0.00 0.00 0.00 37 1008.7
20260507124536 21 259 0.0 16.1 0.00 0.00 0.00 40 1008.8
20260507123041 21 235 4.8 17.7 0.00 0.00 0.00 36 1008.9
20260507121536 21 248 0.0 22.5 0.00 0.00 0.00 35 1009.0
20260507120033 22 198 4.8 11.3 0.00 0.00 0.00 35 1009.0
20260507114532 21 279 1.6 14.5 0.00 0.00 0.00 37 1009.2
20260507113034 21 279 4.8 19.3 0.00 0.00 0.00 38 1009.3
20260507111537 21 267 6.4 12.9 0.00 0.00 0.00 36 1009.5
20260507110033 22 81 0.0 6.4 0.00 0.00 0.00 32 1009.5
20260507104529 21 293 0.0 6.4 0.00 0.00 0.00 33 1009.7
20260507103127 21 281 6.4 16.1 0.00 0.00 0.00 32 1009.9
20260507101527 21 308 0.0 6.4 0.00 0.00 0.00 32 1010.0
20260507100027 21 338 1.6 8.0 0.00 0.00 0.00 34 1010.1
20260507094526 21 313 0.0 14.5 0.00 0.00 0.00 35 1010.2
20260507093023 21 112 0.0 9.7 0.00 0.00 0.00 41 1010.3
20260507091520 20 70 0.0 9.7 0.00 0.00 0.00 44 1010.4
20260507090018 20 331 3.2 9.7 0.00 0.00 0.00 42 1010.3
20260507084517 19 5 1.6 12.9 0.00 0.00 0.00 45 1010.2
20260507083010 17 21 0.0 3.2 0.00 0.00 0.00 52 1010.4
20260507081507 17 36 0.0 4.8 0.00 0.00 0.00 53 1010.3
20260507080005 16 53 0.0 6.4 0.00 0.00 0.00 54 1010.0
20260507074502 16 333 0.0 6.4 0.00 0.00 0.00 55 1010.2
20260507073100 16 47 0.0 9.7 0.00 0.00 0.00 56 1010.1
20260507071606 15 34 0.0 8.0 0.00 0.00 0.00 57 1010.0
20260507070055 15 54 0.0 1.6 0.00 0.00 0.00 57 1009.8
20260507064607 15 46 0.0 4.8 0.00 0.00 0.00 58 1009.6
20260507063056 15 61 0.0 3.2 0.00 0.00 0.00 59 1009.6
20260507061551 14 28 0.0 3.2 0.00 0.00 0.00 60 1009.7
20260507060050 14 85 0.0 0.0 0.00 0.00 0.00 61 1009.4
20260507054548 14 85 0.0 4.8 0.00 0.00 0.00 60 1009.3
20260507053045 14 23 0.0 9.7 0.00 0.00 0.00 61 1009.2
20260507051539 13 23 0.0 8.0 0.00 0.00 0.00 61 1009.1
20260507050040 13 34 0.0 3.2 0.00 0.00 0.00 61 1008.9
20260507044534 13 355 0.0 8.0 0.00 0.00 0.00 61 1008.8
20260507043032 13 5 0.0 6.4 0.00 0.00 0.00 62 1008.7
20260507041546 13 41 0.0 0.0 0.00 0.00 0.00 61 1008.6
20260507040028 13 11 0.0 4.8 0.00 0.00 0.00 62 1008.4
20260507034527 13 355 0.0 4.8 0.00 0.00 0.00 63 1008.4
20260507033031 13 69 0.0 0.0 0.00 0.00 0.00 64 1008.4
20260507031525 13 69 0.0 0.0 0.00 0.00 0.00 63 1008.4
20260507030025 13 69 0.0 3.2 0.00 0.00 0.00 63 1008.4
20260507024523 13 21 0.0 3.2 0.00 0.00 0.00 63 1008.3
20260507023021 13 360 0.0 4.8 0.00 0.00 0.00 61 1008.3
20260507021520 13 59 0.0 3.2 0.00 0.00 0.00 62 1008.3
20260507020021 14 57 0.0 3.2 0.00 0.00 0.00 61 1008.2
20260507014525 13 36 0.0 6.4 0.00 0.00 0.00 61 1008.3
20260507013034 13 74 0.0 8.0 0.00 0.00 0.00 61 1008.2
20260507011530 14 21 0.0 3.2 0.00 0.00 0.00 61 1008.3
20260507010013 15 26 0.0 6.4 0.00 0.00 0.00 59 1008.2
20260507004516 15 355 1.6 9.7 0.00 0.00 0.00 58 1008.2
20260507003011 15 13 0.0 4.8 0.00 0.00 0.00 58 1008.2
20260507001511 15 47 1.6 8.0 0.00 0.00 0.00 58 1008.3
20260507000022 15 63 0.0 9.7 0.00 0.00 0.00 58 1008.5
20260506234509 15 30 1.6 9.7 0.00 0.00 0.00 59 1008.5
20260506233008 15 70 0.0 8.0 0.00 0.00 0.00 57 1008.5
20260506231505 15 36 0.0 8.0 0.00 0.00 0.00 57 1008.4
20260506230004 15 31 1.6 8.0 0.00 0.00 0.00 56 1008.4
20260506224501 16 9 1.6 8.0 0.00 0.00 0.00 56 1008.3
20260506223126 16 5 0.0 4.8 0.00 0.00 0.00 55 1008.2
20260506221603 16 49 0.0 6.4 0.00 0.00 0.00 55 1008.0
20260506220057 16 53 0.0 8.0 0.00 0.00 0.00 54 1007.9
20260506214607 16 81 1.6 14.5 0.00 0.00 0.00 54 1007.9
20260506213055 16 42 1.6 17.7 0.00 0.00 0.00 54 1008.0
20260506211556 16 5 0.0 4.8 0.00 0.00 0.00 54 1007.9
20260506210057 16 355 0.0 3.2 0.00 0.00 0.00 53 1007.8
20260506204552 16 37 0.0 8.0 0.00 0.00 0.00 53 1007.6
20260506203100 16 36 1.6 8.0 0.00 0.00 0.00 53 1007.6
20260506201551 16 5 0.0 8.0 0.00 0.00 0.00 53 1007.4
20260506200130 16 35 0.0 6.4 0.00 0.00 0.00 53 1007.5